FW4284 Weather Reports


time (UTC)temp
F
wind
direction
speed
knots
gust
knots
rain 1hr
in
rain 24hr
in
rain mn
in
humidity
%
barometer
mb
20260506171029 69 120 1.7 3.5 0.00 0.01 0.01 59 1012.6
20260506170026 68 88 1.7 3.5 0.00 0.01 0.01 62 1012.6
20260506165029 67 43 0.9 3.5 0.00 0.01 0.01 63 1012.7
20260506164030 65 84 1.7 2.6 0.00 0.01 0.01 65 1012.7
20260506163047 64 137 1.7 2.6 0.00 0.01 0.01 68 1012.6
20260506162043 62 0.0 0.0 0.00 0.01 0.01 70 1012.6
20260506161045 61 0.0 0.0 0.00 0.01 0.01 72 1012.7
20260506160027 59 0.0 0.0 0.00 0.01 0.01 75 1012.8
20260506155029 58 0.0 0.0 0.00 0.01 0.01 77 1012.8
20260506154053 57 0.0 0.0 0.00 0.01 0.01 78 1012.9
20260506153021 56 0.0 0.0 0.00 0.01 0.01 81 1013.1
20260506152019 55 0.0 0.0 0.00 0.01 0.01 83 1013.1
20260506151020 54 0.0 0.0 0.00 0.01 0.01 86 1013.1
20260506150023 53 0.0 0.0 0.00 0.01 0.01 85 1013.2
20260506145058 52 0.0 0.0 0.00 0.01 0.01 88 1013.2
20260506144021 51 0.0 0.0 0.00 0.01 0.01 89 1013.1
20260506143017 51 0.0 0.0 0.00 0.01 0.01 88 1013.1
20260506142031 51 0.0 0.0 0.00 0.01 0.01 91 1013.1
20260506141016 50 0.0 0.0 0.00 0.01 0.01 92 1012.8
20260506140017 49 0.0 0.0 0.00 0.01 0.01 94 1012.9
20260506135019 47 0.0 0.0 0.00 0.01 0.01 96 1012.9
20260506134017 45 0.0 0.0 0.00 0.01 0.01 97 1012.7
20260506133018 44 0.0 0.0 0.00 0.01 0.01 97 1012.7
20260506132016 44 0.0 0.0 0.00 0.01 0.01 97 1012.7
20260506131038 44 0.0 0.0 0.00 0.01 0.01 97 1012.5
20260506130021 44 0.0 0.0 0.01 0.01 0.01 97 1012.5
20260506125018 44 0.0 0.0 0.01 0.01 0.01 97 1012.4
20260506124017 44 0.0 0.0 0.01 0.01 0.01 97 1012.2
20260506123026 44 0.0 0.0 0.01 0.01 0.01 96 1012.2
20260506122023 44 0.0 0.0 0.01 0.01 0.01 95 1012.1
20260506121019 44 0.0 0.0 0.01 0.01 0.01 96 1012.0
20260506120017 44 0.0 0.0 0.00 0.00 0.00 96 1011.9
20260506115021 45 0.0 0.0 0.00 0.00 0.00 96 1011.9
20260506114034 45 0.0 0.0 0.00 0.00 0.00 96 1012.0
20260506113052 45 0.0 0.0 0.00 0.00 0.00 97 1012.0
20260506112029 45 350 0.9 2.6 0.00 0.00 0.00 97 1012.1
20260506111023 45 44 0.9 2.6 0.00 0.00 0.00 96 1011.8
20260506110020 45 23 0.0 0.9 0.00 0.00 0.00 96 1012.0
20260506105021 45 56 0.0 1.7 0.00 0.00 0.00 95 1012.0
20260506104020 45 0.0 0.0 0.00 0.00 0.00 94 1012.0
20260506103043 45 0.0 0.0 0.00 0.00 0.00 94 1012.2
20260506102035 46 0.0 0.0 0.00 0.00 0.00 93 1012.1
20260506101100 46 0.0 0.0 0.00 0.00 0.00 93 1012.2
20260506100021 46 0.0 0.9 0.00 0.00 0.00 93 1012.1
20260506094024 46 0.0 0.0 0.00 0.00 0.00 93 1012.1
20260506093022 46 0.0 0.0 0.00 0.00 0.00 93 1012.1
20260506092040 46 57 0.0 1.7 0.00 0.00 0.00 93 1012.1
20260506091032 46 13 0.9 1.7 0.00 0.00 0.00 92 1012.3
20260506090028 46 0.0 0.0 0.00 0.00 0.00 90 1012.1
20260506085028 46 0.0 0.0 0.00 0.00 0.00 90 1012.1
20260506084043 47 0.0 0.0 0.00 0.00 0.00 89 1012.3
20260506083025 48 0.0 0.0 0.00 0.00 0.00 90 1012.3
20260506082023 47 0.0 0.0 0.00 0.00 0.00 90 1012.4
20260506081017 47 23 0.9 2.6 0.00 0.00 0.00 88 1012.3
20260506073029 49 0.0 0.0 0.00 0.00 0.00 86 1012.4
20260506072024 50 0.0 0.0 0.00 0.00 0.00 86 1011.8
20260506071025 50 0.0 0.0 0.00 0.00 0.00 86 1011.6
20260506062020 51 0.0 0.0 0.00 0.00 0.00 83 1011.2
20260506061017 51 57 0.0 1.7 0.00 0.00 0.00 82 1011.3
20260506051031 53 17 0.0 2.6 0.00 0.00 0.00 78 1010.7
20260506045025 54 0.0 0.0 0.00 0.00 0.00 78 1010.6
20260506044022 54 191 0.9 1.7 0.00 0.00 0.00 78 1010.5
20260506043016 55 84 0.0 2.6 0.00 0.00 0.00 78 1010.5
20260506042101 55 54 0.9 2.6 0.00 0.00 0.00 78 1010.2
20260506041015 55 135 0.0 1.7 0.00 0.00 0.00 77 1010.1
20260506040051 56 0.0 0.0 0.00 0.00 0.00 76 1010.0
20260506035020 56 0.0 0.0 0.00 0.00 0.00 75 1009.9
20260506034017 56 0.0 0.0 0.00 0.00 0.00 74 1009.8
20260506033019 57 180 0.0 0.9 0.00 0.00 0.00 73 1009.7
20260506032022 58 0.0 0.0 0.00 0.00 0.00 72 1009.4
20260506031028 58 0.0 0.0 0.00 0.00 0.00 71 1009.4
20260506030019 59 248 0.0 1.7 0.00 0.00 0.00 70 1009.2
20260506025018 60 158 0.0 1.7 0.00 0.00 0.00 69 1009.1
20260506024032 61 60 0.9 1.7 0.00 0.00 0.00 68 1008.9
20260506023033 61 160 0.0 1.7 0.00 0.00 0.00 66 1008.8
20260506022030 62 203 0.0 2.6 0.00 0.00 0.00 65 1008.8
20260506021027 62 163 2.6 3.5 0.00 0.00 0.00 65 1008.6
20260506020025 63 204 1.7 3.5 0.00 0.00 0.00 64 1008.5
20260506015028 63 169 0.9 2.6 0.00 0.00 0.00 64 1008.3
20260506014103 64 179 1.7 4.3 0.00 0.00 0.00 64 1008.3
20260506013024 63 295 1.7 4.3 0.00 0.00 0.00 65 1008.3
20260506012028 63 84 2.6 4.3 0.00 0.00 0.00 64 1008.3
20260506011022 63 183 1.7 3.5 0.00 0.00 0.00 64 1008.1
20260506010019 64 89 1.7 3.5 0.00 0.00 0.00 64 1008.1
20260506005017 65 322 2.6 5.2 0.00 0.00 0.00 62 1008.0
20260506004025 66 233 2.6 4.3 0.00 0.00 0.00 61 1007.9
20260506003029 66 173 2.6 3.5 0.00 0.00 0.00 61 1007.8
20260506002046 65 107 2.6 3.5 0.00 0.00 0.00 63 1007.9
20260506001025 66 112 1.7 4.3 0.00 0.00 0.00 61 1007.7
20260506000024 64 103 2.6 3.5 0.00 0.00 0.00 61 1007.7
20260505235042 66 172 2.6 4.3 0.00 0.00 0.00 59 1007.7
20260505234022 66 227 2.6 7.0 0.00 0.00 0.00 59 1007.7
20260505233025 66 302 3.5 6.1 0.00 0.00 0.00 58 1007.9
20260505232027 65 125 0.9 3.5 0.00 0.00 0.00 61 1008.2
20260505231023 64 112 2.6 4.3 0.00 0.00 0.00 61 1007.9
20260505230020 64 218 1.7 3.5 0.00 0.00 0.00 61 1007.9
20260505225022 65 173 2.6 4.3 0.00 0.00 0.00 61 1008.0
20260505224038 64 144 1.7 3.5 0.00 0.00 0.00 62 1008.1
20260505223029 64 201 1.7 3.5 0.00 0.00 0.00 62 1008.2
20260505222023 64 165 1.7 4.3 0.00 0.00 0.00 62 1008.3
20260505221021 64 129 1.7 3.5 0.00 0.00 0.00 63 1008.2
20260505220016 65 167 1.7 4.3 0.00 0.00 0.00 62 1008.3
20260505215025 65 190 2.6 5.2 0.00 0.00 0.00 63 1008.4
20260505214026 65 145 2.6 4.3 0.00 0.00 0.00 62 1008.4
20260505213029 66 85 2.6 4.3 0.00 0.00 0.00 59 1008.4
20260505212025 67 158 2.6 3.5 0.00 0.00 0.00 58 1008.3
20260505211022 67 143 3.5 6.1 0.00 0.00 0.00 58 1008.4
20260505210025 68 123 2.6 5.2 0.00 0.00 0.00 57 1008.4
20260505205017 69 98 2.6 4.3 0.00 0.00 0.00 56 1008.5
20260505204017 70 149 2.6 5.2 0.00 0.00 0.00 56 1008.4
20260505203059 68 128 2.6 4.3 0.00 0.00 0.00 58 1008.5
20260505202055 66 83 1.7 2.6 0.00 0.00 0.00 61 1008.5
20260505201020 69 62 3.5 6.1 0.00 0.00 0.00 57 1008.6
20260505200018 67 140 1.7 4.3 0.00 0.00 0.00 61 1008.6
20260505195029 65 171 2.6 4.3 0.00 0.00 0.00 63 1008.7
20260505194023 63 168 1.7 3.5 0.00 0.00 0.00 65 1008.8
20260505193020 63 140 2.6 5.2 0.00 0.00 0.00 66 1008.8
20260505192015 65 153 1.7 2.6 0.00 0.00 0.00 65 1008.6
20260505191026 65 32 2.6 4.3 0.00 0.00 0.00 63 1008.7
20260505190026 65 184 2.6 4.3 0.00 0.00 0.00 63 1008.7
20260505185025 67 190 3.5 6.1 0.00 0.00 0.00 60 1008.6
20260505184020 69 160 2.6 4.3 0.00 0.00 0.00 59 1008.6
20260505183017 67 132 2.6 5.2 0.00 0.00 0.00 61 1008.9
20260505182031 69 186 1.7 4.3 0.00 0.00 0.00 60 1008.9
20260505181028 67 166 1.7 4.3 0.00 0.00 0.00 62 1009.0
20260505180019 65 133 2.6 5.2 0.00 0.00 0.00 65 1008.9
20260505175017 68 103 2.6 3.5 0.00 0.00 0.00 61 1008.9
20260505174019 64 138 1.7 4.3 0.00 0.00 0.00 66 1008.8
20260505173044 63 153 1.7 3.5 0.00 0.00 0.00 67 1008.5
20260505172018 62 194 0.9 3.5 0.00 0.00 0.00 70 1008.5